Regional Weather Roundup
Issued by NWS

Home | Current Version | Previous Version | Graphics & Text | Print | Product List | Glossary On
Versions: 1 2 3 4 5 6 7 8 9 10 11 12 13 14 15 16 17 18 19 20 21 22 23 24 25 26 27
000
ASUS45 KSLC 261210
RWRUT

UTAH REGIONAL WEATHER ROUNDUP
NATIONAL WEATHER SERVICE SALT LAKE CITY UT
500 AM MST SUN FEB 26 2017

UTZ001>011-023>025-261300-

NORTHERN UTAH

CITY           SKY/WX    TMP DP  RH WIND       PRES   REMARKS
BRIGHAM CITY     N/A     23  18  81 N5        29.95F WCI  17
HILL AFB       CLEAR     19  10  69 E9        29.92F WCI   8
LOGAN          CLEAR     13   8  81 CALM      29.94F
OGDEN          CLEAR     19  12  74 S9        29.93F WCI   8
SALT LAKE CITY PTCLDY    23  15  71 SE9       29.95F WCI  13
TOOELE VALLEY  CLEAR     21  14  73 S10       29.95F WCI  10
WENDOVER       CLEAR     19  12  73 CALM      29.93F
HEBER CITY     FLURRIES   7   3  85 CALM      29.94S
WEST JORDAN    CLEAR     23  20  89 S6        29.94F WCI  15

$$

UTZ011>015-024>027-261300-

CENTRAL/NORTHEAST UTAH

CITY           SKY/WX    TMP DP  RH WIND       PRES   REMARKS
PROVO AIRPORT  PTCLDY    12   8  84 SE5       29.98F WCI   4
MOAB/CANYONLAN CLEAR     24   9  52 CALM      29.93S
DELTA          CLEAR     19  14  79 NE3       29.93F
PRICE          PTCLDY    13   8  81 CALM      29.89F
RICHFIELD        N/A     19  19 100 CALM      29.96F
ROOSEVELT      CLEAR     12   3  67 CALM      29.96S
VERNAL         CLOUDY     4  -3  73 CALM      29.93F

$$

UTZ013>016-019>022-027-261300-

SOUTHERN UTAH

CITY           SKY/WX    TMP DP  RH WIND       PRES   REMARKS
BRYCE CANYON   CLOUDY     9   5  84 CALM      29.86F FOG
CEDAR CITY     CLEAR     20  16  84 CALM      29.88F
MILFORD        CLEAR     21  17  84 SW5       29.91F WCI  15
ST GEORGE      MOSUNNY   32  23  69 SE5       29.94F WCI  27
HANKSVILLE     CLEAR     23  19  86 E3        29.97S
KANAB          CLEAR     27  18  69 N7        29.96S WCI  19
BLANDING       CLOUDY    27  18  69 NE6       29.97S WCI  21

$$

REGIONAL REPORTS     COLORADO/ARIZONA

CITY           SKY/WX    TMP DP  RH WIND       PRES   REMARKS
CRAIG, CO      CLOUDY     2  -3  80 CALM      29.91S
GRAND JUNCTION CLEAR     19  11  70 CALM      29.94S
RIFLE, CO      CLOUDY    16   9  74 CALM      29.94R
MONTROSE, CO   CLOUDY    23  15  71 S5        29.94R WCI  17
CORTEZ, CO     CLEAR     21  17  84 NE3       29.90R
COLORADO CITY    N/A     25  21  86 CALM      29.93S
PAGE, AZ       PTCLDY    34  13  41 CALM      29.91S
GRAND CANYON   CLOUDY    28  21  75 CALM      29.90S
KINGMAN, AZ    PTCLDY    35  15  44 E3        29.88F
FLAGSTAFF, AZ  CLOUDY    26  20  77 SW7       29.89F WCI  18

$$

REGIONAL REPORTS    NEVADA/IDAHO/WYOMING

CITY           SKY/WX    TMP DP  RH WIND       PRES   REMARKS
LAS VEGAS, NV  PTCLDY    40  24  53 S5        29.88F
ELY, NY        CLEAR      4   1  88 S9        29.88F WCI -10
ELKO, NV       CLEAR     16  11  80 E3        29.89F
POCATELLO, ID  CLOUDY    13   6  74 NE3       29.90F
BURLEY, ID     PTCLDY    23  10  57 S13       29.88F WCI  11
FORT BRIDGER,  MOSUNNY    7   1  78 W14       29.85S WCI -10
EVANSTON, WY   FLURRIES   3  -1  83 SW9       29.83S WCI -12
ROCK SPRINGS,  CLOUDY     6   1  80 SW16      29.82S WCI -12
KEMMERER, WY     N/A      0  -4  85 W9        29.80S WCI -16

$$




USA.gov is the U.S. government's official web portal to all federal, state and local government web resources and services.